Regional Weather Roundup
Issued by NWS Jackson, KY

Home | Current Version | Previous Version | Text Only | Print | Product List | Glossary Off
Versions: 1 2 3 4 5 6 7 8 9 10 11 12 13 14 15 16 17 18 19 20 21 22 23 24 25 26 27 28 29 30 31 32 33 34 35 36 37 38 39 40 41 42 43 44 45 46 47 48 49 50

126
ASUS43 KJKL 260410
RWRJKL

EAST KENTUCKY HOURLY WEATHER ROUNDUP
NATIONAL WEATHER SERVICE JACKSON KY
1200 AM EDT THU MAY 26 2016

NOTE: "FAIR" INDICATES FEW OR NO CLOUDS BELOW 12,000 FEET WITH
NO SIGNIFICANT WEATHER AND/OR OBSTRUCTIONS TO VISIBILITY.

* THESE REPORTS ARE NOT UNDER NWS QUALITY CONTROL AND MAY NOT
  REPORT WEATHER SUCH AS PRECIPITATION AND FOG.

KYZ079-080-083-085-087-088-110-112-115-119-120-260500
...EASTERN KENTUCKY...

CITY           SKY/WX    TMP DP  RH WIND       PRES   REMARKS
JACKSON        CLOUDY    70  59  68 CALM      30.14F
LONDON         CLOUDY    68  63  84 SE3       30.11F
SOMERSET*      CLOUDY    66  63  88 CALM      30.09F
MONTICELLO*    CLOUDY    68  65  90 W14       30.10F
WILLIAMSBURG*  CLOUDY    66  57  72 SE6       30.11F
MIDDLESBORO*   CLOUDY    66  63  88 CALM      30.15F
HARLAN APT*    CLOUDY    68  57  68 CALM      30.16F
BLACK MTN*       N/A     63  57  82 SE3         N/A
PIKE CO APT*   CLOUDY    73  56  53 S3        30.15F
BIG SANDY APT* CLOUDY    71  61  70 CALM      30.14F
MOREHEAD APT*  PTCLDY    68  63  83 SE5       30.12F
ASHLAND*       PTCLDY    66  63  88 CALM      30.09S
$$

KYZ035-036-041-042-044-050-067-078-099-260500
...CENTRAL KENTUCKY...

CITY           SKY/WX    TMP DP  RH WIND       PRES   REMARKS
MT STERLING*   PTCLDY    68  63  83 SW5       30.12S
FLEMING/MASON* CLOUDY   N/A N/A N/A S3        30.10F
DANVILLE*      PTCLDY    66  61  82 SE3       30.08F
RICHMOND*      MOCLDY    68  61  77 SE5       30.09F
LEXINGTON      CLOUDY    70  61  73 E3        30.08F
FRANKFORT      CLOUDY    70  62  76 CALM      30.06F
LOUISVILLE     CLOUDY    72  61  68 S7        30.06S
LEBANON*         N/A     68  63  83 S5        30.07F
GLASGOW*       MOCLDY    65  65 100 S3        30.08S
BOWLING GREEN  CLOUDY    67  65  93 SW6       30.08S
$$

KYZ091>093-OHZ055-061-077-WVZ005-015-034-035-042-260500
...SOUTHERN OHIO/WEST VIRGINIA...

CITY           SKY/WX    TMP DP  RH WIND       PRES   REMARKS
COVINGTON      MOCLDY    69  64  84 S6        30.07F
COLUMBUS       CLOUDY    71  61  70 S8        30.07F
DAYTON         PTCLDY    72  62  71 S8        30.06F
WILMINGTON     PTCLDY    68  63  84 S7        30.08F
HUNTINGTON     CLOUDY    70  62  76 S5        30.11F
CHARLESTON       N/A     65  63  93 W3        30.13S
PINEVILLE*     MOCLDY    62  58  87 MISG      30.23F
BECKLEY          N/A     66  54  65 S5        30.21F
BLUEFIELD        N/A     67  52  58 CALM      30.25F
LOGAN CO APT*    N/A     72  61  68 CALM      30.16S
$$

VAZ002-007-008-TNZ017-027-036-066-071-260500
...SOUTHWEST VIRGINIA/EAST TENNESSEE...

CITY           SKY/WX    TMP DP  RH WIND       PRES   REMARKS
WISE*          CLOUDY    68  50  52 CALM      30.23F
JONESVILLE*      N/A     66  61  82 CALM      30.19F
ABINGDON*      CLOUDY    69  61  77 CALM      30.22F
BRISTOL        CLOUDY    66  64  93 CALM      30.19F FOG
SEVIERVILLE*   CLEAR     64  61  88 CALM      30.16F
KNOXVILLE      PTCLDY    70  61  73 CALM      30.14F
OAK RIDGE      PTCLDY    68  61  78 CALM      30.15F
CROSSVILLE     CLOUDY    68  58  70 CALM      30.15F
NASHVILLE      MOCLDY    66  63  90 CALM      30.10S
$$

...KEY TO REMARKS...
VSB - VISIBILITY IN MILES
WCI - WIND CHILL INDEX
HX  - HEAT INDEX

$$




USA.gov is the U.S. government's official web portal to all federal, state and local government web resources and services.